GW7208 Weather Reports


time (UTC)temp
C
wind
direction
speed
KPH
gust
KPH
rain 1hr
cm
rain 24hr
cm
rain mn
cm
humidity
%
barometer
mb
20260510203519 26 174 0.0 3.2 0.00 0.00 0.00 48 1012.4
20260510203018 26 219 3.2 9.7 0.00 0.00 0.00 48 1012.4
20260510202517 26 297 0.0 3.2 0.00 0.00 0.00 46 1012.3
20260510202017 26 0 0.0 0.0 0.00 0.00 0.00 47 1012.3
20260510201517 26 194 1.6 4.8 0.00 0.00 0.00 47 1012.2
20260510201017 26 207 4.8 9.7 0.00 0.00 0.00 47 1012.3
20260510200517 26 195 4.8 9.7 0.00 0.00 0.00 47 1012.4
20260510200017 26 238 3.2 6.4 0.00 0.00 0.00 47 1012.4
20260510195518 26 266 6.4 12.9 0.00 0.00 0.00 47 1012.5
20260510195017 26 173 1.6 3.2 0.00 0.00 0.00 44 1012.5
20260510194517 26 255 1.6 4.8 0.00 0.00 0.00 45 1012.6
20260510194018 26 294 3.2 4.8 0.00 0.00 0.00 45 1012.6
20260510193517 25 245 4.8 8.0 0.00 0.00 0.00 46 1012.7
20260510193018 25 216 1.6 3.2 0.00 0.00 0.00 47 1012.7
20260510192517 25 146 1.6 3.2 0.00 0.00 0.00 47 1012.7
20260510192017 25 96 1.6 3.2 0.00 0.00 0.00 47 1012.8
20260510191517 25 48 3.2 4.8 0.00 0.00 0.00 47 1012.8
20260510191019 25 79 1.6 3.2 0.00 0.00 0.00 47 1012.8
20260510190517 25 56 3.2 4.8 0.00 0.00 0.00 47 1012.8
20260510190018 25 50 4.8 6.4 0.00 0.00 0.00 48 1012.8
20260510185518 25 57 1.6 3.2 0.00 0.00 0.00 48 1012.7
20260510185018 25 44 3.2 8.0 0.00 0.00 0.00 48 1012.7
20260510184517 25 66 1.6 4.8 0.00 0.00 0.00 48 1012.8
20260510183538 25 64 3.2 4.8 0.00 0.00 0.00 49 1012.8
20260510183017 25 58 3.2 4.8 0.00 0.00 0.00 49 1012.7
20260510182518 26 54 3.2 6.4 0.00 0.00 0.00 47 1012.8
20260510182017 26 239 1.6 4.8 0.00 0.00 0.00 47 1012.8
20260510181517 26 227 3.2 9.7 0.00 0.00 0.00 47 1012.8
20260510181017 26 165 1.6 4.8 0.00 0.00 0.00 46 1012.8
20260510180517 26 217 3.2 8.0 0.00 0.00 0.00 46 1012.8
20260510180018 26 261 3.2 9.7 0.00 0.00 0.00 46 1012.8
20260510175519 26 232 0.0 3.2 0.00 0.00 0.00 47 1012.8
20260510175017 26 210 3.2 6.4 0.00 0.00 0.00 46 1012.9
20260510174517 26 42 1.6 4.8 0.00 0.00 0.00 46 1012.9
20260510174017 26 197 1.6 3.2 0.00 0.00 0.00 47 1012.8
20260510173517 26 175 6.4 9.7 0.00 0.00 0.00 47 1012.8
20260510173018 26 193 3.2 6.4 0.00 0.00 0.00 48 1012.8
20260510172518 26 177 6.4 11.3 0.00 0.00 0.00 48 1012.8
20260510172017 25 256 6.4 12.9 0.00 0.00 0.00 49 1012.9
20260510171517 25 196 6.4 12.9 0.00 0.00 0.00 50 1012.8
20260510171017 25 223 4.8 11.3 0.00 0.00 0.00 50 1012.9
20260510170517 25 195 6.4 11.3 0.00 0.00 0.00 49 1012.8
20260510170017 25 206 6.4 12.9 0.00 0.00 0.00 49 1013.0
20260510165518 25 158 4.8 8.0 0.00 0.00 0.00 51 1013.0
20260510165017 25 233 6.4 8.0 0.00 0.00 0.00 51 1013.0
20260510164517 25 208 4.8 11.3 0.00 0.00 0.00 51 1013.0
20260510164017 24 179 6.4 11.3 0.00 0.00 0.00 52 1013.0
20260510163517 24 212 6.4 8.0 0.00 0.00 0.00 51 1013.1
20260510163017 24 175 3.2 8.0 0.00 0.00 0.00 52 1013.1
20260510162517 24 163 4.8 11.3 0.00 0.00 0.00 51 1013.0
20260510162017 24 214 6.4 9.7 0.00 0.00 0.00 52 1013.0
20260510161518 23 176 3.2 8.0 0.00 0.00 0.00 54 1013.0
20260510161017 23 175 6.4 8.0 0.00 0.00 0.00 55 1013.0
20260510160517 23 190 6.4 8.0 0.00 0.00 0.00 56 1013.1
20260510160017 23 197 6.4 9.7 0.00 0.00 0.00 56 1013.1
20260510155520 22 189 3.2 9.7 0.00 0.00 0.00 56 1013.2
20260510155017 22 173 3.2 6.4 0.00 0.00 0.00 58 1013.2
20260510154518 22 185 6.4 9.7 0.00 0.00 0.00 58 1013.2
20260510154017 22 182 3.2 6.4 0.00 0.00 0.00 57 1013.2
20260510153517 21 186 4.8 6.4 0.00 0.00 0.00 60 1013.2
20260510153017 21 183 4.8 6.4 0.00 0.00 0.00 60 1013.3
20260510152517 21 172 8.0 9.7 0.00 0.00 0.00 62 1013.3
20260510152017 21 183 4.8 6.4 0.00 0.00 0.00 60 1013.5
20260510151517 21 152 1.6 6.4 0.00 0.00 0.00 62 1013.4
20260510151017 20 171 4.8 8.0 0.00 0.00 0.00 64 1013.4
20260510150517 20 171 4.8 8.0 0.00 0.00 0.00 64 1013.5
20260510150017 20 184 4.8 9.7 0.00 0.00 0.00 64 1013.6
20260510145517 20 225 0.0 1.6 0.00 0.00 0.00 66 1013.6
20260510145017 20 157 6.4 8.0 0.00 0.00 0.00 66 1013.6
20260510144517 20 143 4.8 6.4 0.00 0.00 0.00 66 1013.6
20260510144017 19 188 3.2 6.4 0.00 0.00 0.00 67 1013.6
20260510143518 18 189 0.0 1.6 0.00 0.00 0.00 68 1013.6
20260510143017 18 202 3.2 9.7 0.00 0.00 0.00 71 1013.5
20260510142518 17 153 3.2 8.0 0.00 0.00 0.00 72 1013.5
20260510142017 17 173 3.2 4.8 0.00 0.00 0.00 73 1013.5
20260510141517 17 177 6.4 8.0 0.00 0.00 0.00 73 1013.5
20260510141017 17 169 3.2 6.4 0.00 0.00 0.00 75 1013.6
20260510140517 17 162 3.2 6.4 0.00 0.00 0.00 75 1013.6
20260510140017 17 176 3.2 6.4 0.00 0.00 0.00 74 1013.5
20260510135519 17 202 3.2 4.8 0.00 0.00 0.00 74 1013.6
20260510135018 16 188 3.2 6.4 0.00 0.00 0.00 76 1013.6
20260510134517 16 174 4.8 6.4 0.00 0.00 0.00 78 1013.5
20260510134017 16 223 3.2 6.4 0.00 0.00 0.00 78 1013.5
20260510133517 15 190 3.2 6.4 0.00 0.00 0.00 79 1013.5
20260510133017 15 160 3.2 6.4 0.00 0.00 0.00 81 1013.4
20260510132517 15 212 3.2 6.4 0.00 0.00 0.00 80 1013.4
20260510132017 16 150 3.2 6.4 0.00 0.00 0.00 80 1013.5
20260510131517 16 173 3.2 4.8 0.00 0.00 0.00 78 1013.6
20260510131018 15 119 0.0 3.2 0.00 0.00 0.00 79 1013.7
20260510130518 15 201 3.2 3.2 0.00 0.00 0.00 82 1013.7
20260510130017 14 161 1.6 4.8 0.00 0.00 0.00 83 1013.7
20260510125517 14 126 0.0 3.2 0.00 0.00 0.00 84 1013.7
20260510125017 14 209 3.2 4.8 0.00 0.00 0.00 83 1013.6
20260510124517 14 227 1.6 4.8 0.00 0.00 0.00 84 1013.6
20260510124017 13 182 1.6 4.8 0.00 0.00 0.00 86 1013.5
20260510123518 13 169 3.2 8.0 0.00 0.00 0.00 86 1013.4
20260510123018 13 207 3.2 6.4 0.00 0.00 0.00 86 1013.3
20260510122517 13 164 3.2 6.4 0.00 0.00 0.00 85 1013.2
20260510122018 13 130 1.6 6.4 0.00 0.00 0.00 86 1013.2
20260510121517 13 146 1.6 3.2 0.00 0.00 0.00 88 1013.1
20260510121018 13 198 3.2 3.2 0.00 0.00 0.00 87 1013.0
20260510120517 12 0 0.0 0.0 0.00 0.00 0.00 88 1013.2
20260510120018 12 64 0.0 1.6 0.00 0.00 0.00 88 1013.2
20260510115517 12 80 0.0 1.6 0.00 0.00 0.00 89 1013.1
20260510115018 12 28 1.6 3.2 0.00 0.00 0.00 88 1013.2
20260510114517 12 0 0.0 0.0 0.00 0.00 0.00 89 1013.1
20260510114017 12 353 1.6 3.2 0.00 0.00 0.00 89 1012.9
20260510113518 12 266 1.6 3.2 0.00 0.00 0.00 89 1012.9
20260510113018 12 0 0.0 0.0 0.00 0.00 0.00 89 1012.9
20260510112517 12 22 1.6 3.2 0.00 0.00 0.00 89 1012.9
20260510112019 12 0 0.0 0.0 0.00 0.00 0.00 89 1012.8
20260510111518 12 119 0.0 1.6 0.00 0.00 0.00 89 1012.8
20260510111017 12 15 0.0 3.2 0.00 0.00 0.00 89 1012.7
20260510110517 12 11 0.0 3.2 0.00 0.00 0.00 89 1012.5
20260510110020 12 19 1.6 3.2 0.00 0.00 0.00 89 1012.6
20260510105517 12 69 0.0 3.2 0.00 0.00 0.00 89 1012.4
20260510105017 12 41 0.0 1.6 0.00 0.00 0.00 90 1012.4
20260510104517 11 21 0.0 0.0 0.00 0.00 0.00 90 1012.3
20260510104018 11 50 0.0 1.6 0.00 0.00 0.00 90 1012.2
20260510103517 11 9 0.0 3.2 0.00 0.00 0.00 90 1012.2
20260510103017 11 0 1.6 3.2 0.00 0.00 0.00 91 1012.1
20260510102517 11 3 1.6 3.2 0.00 0.00 0.00 91 1012.1
20260510102018 11 127 0.0 1.6 0.00 0.00 0.00 91 1012.1
20260510101520 11 7 1.6 3.2 0.00 0.00 0.00 91 1012.2
20260510101017 11 0 0.0 0.0 0.00 0.00 0.00 91 1012.1
20260510100518 11 357 0.0 1.6 0.00 0.00 0.00 91 1012.1
20260510100017 11 10 0.0 3.2 0.00 0.00 0.00 91 1012.1
20260510095517 11 339 0.0 1.6 0.00 0.00 0.00 91 1012.1
20260510095017 11 7 1.6 3.2 0.00 0.00 0.00 91 1012.1
20260510094517 11 344 1.6 4.8 0.00 0.00 0.00 91 1012.1
20260510094018 11 7 1.6 3.2 0.00 0.00 0.00 91 1012.1
20260510093518 11 351 1.6 3.2 0.00 0.00 0.00 91 1011.9
20260510093018 11 15 0.0 1.6 0.00 0.00 0.00 91 1011.8
20260510092518 11 0 1.6 3.2 0.00 0.00 0.00 91 1011.8
20260510092017 11 9 3.2 6.4 0.00 0.00 0.00 91 1011.8
20260510091518 11 133 0.0 3.2 0.00 0.00 0.00 92 1011.8
20260510091017 11 19 3.2 4.8 0.00 0.00 0.00 91 1011.8
20260510090517 11 20 4.8 8.0 0.00 0.00 0.00 91 1011.9
20260510090017 11 29 3.2 8.0 0.00 0.00 0.00 91 1011.8
20260510085518 11 37 6.4 11.3 0.00 0.00 0.00 92 1011.8
20260510085018 11 15 1.6 4.8 0.00 0.00 0.00 92 1011.6
20260510084517 11 7 3.2 3.2 0.00 0.00 0.00 92 1011.4
20260510084017 11 10 1.6 3.2 0.00 0.00 0.00 92 1011.4
20260510083518 11 0 0.0 0.0 0.00 0.00 0.00 92 1011.3
20260510083018 11 357 0.0 1.6 0.00 0.00 0.00 92 1011.3
20260510082518 11 359 0.0 1.6 0.00 0.00 0.00 92 1011.3
20260510082017 11 292 0.0 1.6 0.00 0.00 0.00 92 1011.3
20260510081518 11 341 0.0 3.2 0.00 0.00 0.00 92 1011.2
20260510081017 12 26 0.0 1.6 0.00 0.00 0.00 92 1011.2
20260510080518 12 2 0.0 1.6 0.00 0.00 0.00 93 1011.3
20260510080018 12 338 0.0 3.2 0.00 0.00 0.00 93 1011.3
20260510075517 12 19 0.0 0.0 0.00 0.00 0.00 93 1011.2
20260510075017 11 0 0.0 0.0 0.00 0.00 0.00 93 1011.2
20260510074517 12 0 0.0 0.0 0.00 0.00 0.00 93 1011.3
20260510074017 11 5 0.0 3.2 0.00 0.00 0.00 93 1011.2
20260510073517 11 6 0.0 3.2 0.00 0.00 0.00 93 1011.1
20260510073017 11 349 0.0 1.6 0.00 0.00 0.00 93 1010.9
20260510072517 12 0 0.0 0.0 0.00 0.00 0.00 92 1010.9
20260510072017 12 12 0.0 3.2 0.00 0.00 0.00 92 1010.8
20260510071517 12 19 0.0 3.2 0.00 0.00 0.00 92 1010.8
20260510071017 12 347 0.0 1.6 0.00 0.00 0.00 92 1010.7
20260510070519 12 49 0.0 1.6 0.00 0.00 0.00 92 1010.7
20260510070017 12 153 0.0 3.2 0.00 0.00 0.00 92 1010.6
20260510065518 12 0 0.0 0.0 0.00 0.00 0.00 92 1010.6
20260510065017 12 0 0.0 0.0 0.00 0.00 0.00 92 1010.6
20260510064517 12 262 0.0 1.6 0.00 0.00 0.00 91 1010.7
20260510064018 12 0 0.0 0.0 0.00 0.00 0.00 91 1010.7
20260510063518 12 0 0.0 0.0 0.00 0.00 0.00 91 1010.7
20260510063017 12 0 0.0 0.0 0.00 0.00 0.00 91 1010.8
20260510062517 12 0 0.0 0.0 0.00 0.00 0.00 91 1010.7
20260510062018 12 348 0.0 1.6 0.00 0.00 0.00 91 1010.7
20260510061517 12 157 0.0 1.6 0.00 0.00 0.00 91 1010.8
20260510061017 12 8 0.0 1.6 0.00 0.00 0.00 90 1010.8
20260510060519 12 0 0.0 0.0 0.00 0.00 0.00 90 1010.8
20260510060017 12 0 0.0 0.0 0.00 0.00 0.00 90 1010.9
20260510055517 12 14 0.0 1.6 0.00 0.00 0.00 90 1010.9
20260510055018 12 0 0.0 0.0 0.00 0.00 0.00 90 1010.9
20260510054517 12 242 0.0 1.6 0.00 0.00 0.00 90 1011.0
20260510054017 12 0 0.0 0.0 0.00 0.00 0.00 89 1011.0
20260510053517 12 0 0.0 0.0 0.00 0.00 0.00 89 1011.1
20260510053017 12 0 0.0 0.0 0.00 0.00 0.00 89 1011.1
20260510052517 12 265 0.0 0.0 0.00 0.00 0.00 89 1011.1
20260510052018 12 0 0.0 0.0 0.00 0.00 0.00 89 1011.1
20260510051517 12 0 0.0 0.0 0.00 0.00 0.00 89 1011.2
20260510051017 13 0 0.0 0.0 0.00 0.00 0.00 89 1011.2
20260510050518 13 165 0.0 1.6 0.00 0.00 0.00 89 1011.3
20260510050018 13 146 1.6 3.2 0.00 0.00 0.00 89 1011.3
20260510045518 13 0 0.0 0.0 0.00 0.00 0.00 88 1011.3
20260510045019 13 0 0.0 0.0 0.00 0.00 0.00 88 1011.4
20260510044517 13 89 1.6 3.2 0.00 0.00 0.00 88 1011.3
20260510044017 13 172 1.6 3.2 0.00 0.00 0.00 88 1011.4
20260510043517 13 88 0.0 1.6 0.00 0.00 0.00 88 1011.4
20260510043017 13 144 0.0 3.2 0.00 0.00 0.00 87 1011.4
20260510042517 13 255 0.0 0.0 0.00 0.00 0.00 87 1011.4
20260510042017 13 183 1.6 4.8 0.00 0.00 0.00 87 1011.5
20260510041517 13 172 3.2 4.8 0.00 0.00 0.00 87 1011.5
20260510041018 13 120 1.6 3.2 0.00 0.00 0.00 87 1011.5
20260510040517 13 91 0.0 1.6 0.00 0.00 0.00 86 1011.5
20260510040017 13 0 0.0 0.0 0.00 0.00 0.03 86 1011.6
20260510035517 13 214 1.6 3.2 0.00 0.00 0.03 86 1011.5
20260510035017 13 203 0.0 3.2 0.00 0.00 0.03 86 1011.4
20260510034517 13 152 1.6 3.2 0.00 0.00 0.03 86 1011.4
20260510034018 13 157 1.6 3.2 0.00 0.00 0.03 86 1011.3
20260510033517 13 139 0.0 0.0 0.00 0.00 0.03 86 1011.3
20260510033017 13 114 0.0 1.6 0.00 0.00 0.03 86 1011.2
20260510032517 13 180 3.2 3.2 0.00 0.00 0.03 86 1011.2
20260510032017 13 0 0.0 0.0 0.00 0.00 0.03 87 1011.2
20260510031517 13 189 0.0 3.2 0.00 0.00 0.03 87 1011.0
20260510031017 13 135 0.0 4.8 0.00 0.00 0.03 87 1011.0
20260510030517 13 0 0.0 0.0 0.00 0.00 0.03 87 1010.9
20260510030018 13 90 0.0 1.6 0.00 0.00 0.03 87 1010.9
20260510025517 13 222 0.0 1.6 0.00 0.00 0.03 86 1010.9
20260510024756 13 180 1.6 3.2 0.00 0.00 0.03 86 1011.0
20260510024017 13 119 0.0 1.6 0.00 0.00 0.03 86 1011.1
20260510023517 13 280 0.0 1.6 0.00 0.00 0.03 86 1011.0
20260510023018 13 223 0.0 0.0 0.00 0.00 0.03 86 1010.9
20260510022518 13 0 0.0 0.0 0.00 0.00 0.03 85 1010.9
20260510022017 14 107 0.0 1.6 0.00 0.00 0.03 85 1010.9
20260510021517 14 162 3.2 6.4 0.00 0.00 0.03 85 1011.0
20260510021017 14 167 3.2 6.4 0.00 0.00 0.03 85 1011.0
20260510020518 14 195 0.0 1.6 0.00 0.00 0.03 85 1010.9
20260510020017 14 180 1.6 3.2 0.00 0.00 0.03 85 1010.8
20260510015517 14 158 0.0 3.2 0.00 0.00 0.03 85 1010.8
20260510015017 14 125 0.0 3.2 0.00 0.00 0.03 85 1010.8
20260510014517 14 164 3.2 4.8 0.00 0.00 0.03 85 1010.8
20260510014017 14 162 3.2 6.4 0.00 0.00 0.03 84 1010.8
20260510013517 14 171 3.2 4.8 0.00 0.00 0.03 84 1010.8
20260510013017 14 203 0.0 1.6 0.00 0.00 0.03 84 1010.8
20260510012517 14 205 1.6 3.2 0.00 0.00 0.03 84 1010.8
20260510012017 14 147 0.0 1.6 0.00 0.00 0.03 83 1010.8
20260510011517 14 62 0.0 1.6 0.00 0.00 0.03 83 1010.8
20260510011018 14 180 1.6 3.2 0.00 0.00 0.03 83 1010.7
20260510010518 14 213 3.2 4.8 0.00 0.00 0.03 83 1010.7
20260510010017 15 180 3.2 6.4 0.00 0.00 0.03 82 1010.6
20260510005517 15 187 1.6 3.2 0.00 0.00 0.03 82 1010.5
20260510005017 15 175 0.0 3.2 0.00 0.00 0.03 81 1010.5
20260510004517 15 213 1.6 4.8 0.00 0.00 0.03 81 1010.5
20260510004017 15 190 1.6 3.2 0.00 0.00 0.03 81 1010.6
20260510003517 15 228 1.6 4.8 0.00 0.00 0.03 80 1010.7
20260510003018 15 127 1.6 3.2 0.00 0.00 0.03 80 1010.6
20260510002518 15 168 3.2 6.4 0.00 0.00 0.03 80 1010.5
20260510002017 15 166 4.8 6.4 0.00 0.00 0.03 79 1010.5
20260510001518 15 176 1.6 4.8 0.00 0.00 0.03 79 1010.5
20260510001017 15 176 4.8 6.4 0.00 0.00 0.03 79 1010.5
20260510000517 15 171 4.8 6.4 0.00 0.00 0.03 79 1010.4
20260509235557 15 184 4.8 8.0 0.00 0.00 0.03 78 1010.4
20260509235017 15 201 1.6 4.8 0.00 0.00 0.03 78 1010.5
20260509234517 15 104 1.6 3.2 0.00 0.00 0.03 78 1010.5
20260509234017 15 118 0.0 3.2 0.00 0.00 0.03 77 1010.5
20260509233517 15 241 1.6 4.8 0.00 0.00 0.03 77 1010.4
20260509233017 15 171 1.6 4.8 0.00 0.00 0.03 77 1010.3
20260509232517 15 163 3.2 4.8 0.00 0.00 0.03 77 1010.3
20260509232017 15 167 3.2 6.4 0.00 0.00 0.03 78 1010.2
20260509231517 16 114 1.6 3.2 0.00 0.00 0.03 77 1010.2
20260509231017 16 200 1.6 3.2 0.00 0.00 0.03 77 1010.2
20260509230517 16 122 3.2 6.4 0.00 0.00 0.03 77 1010.2
20260509230017 16 171 4.8 8.0 0.00 0.00 0.03 76 1010.0
20260509225518 16 218 1.6 4.8 0.00 0.00 0.03 77 1010.1
20260509225020 16 186 1.6 4.8 0.00 0.00 0.03 77 1010.1
20260509224517 16 167 4.8 8.0 0.00 0.00 0.03 76 1010.2
20260509224017 16 203 1.6 4.8 0.00 0.00 0.03 75 1010.3
20260509223032 16 218 1.6 6.4 0.00 0.00 0.03 73 1010.3
20260509222517 16 150 1.6 3.2 0.05 0.00 0.05 73 1010.3
20260509222018 16 128 1.6 3.2 0.05 0.00 0.05 73 1010.3
20260509221518 16 150 0.0 1.6 0.05 0.00 0.05 73 1010.4
20260509221017 16 168 0.0 3.2 0.05 0.00 0.05 73 1010.4
20260509220517 16 140 1.6 4.8 0.05 0.00 0.05 73 1010.4
20260509220017 16 131 1.6 4.8 0.05 0.00 0.05 73 1010.3
20260509215517 16 118 3.2 4.8 0.05 0.00 0.05 74 1010.4
20260509215017 16 0 0.0 0.0 0.05 0.00 0.05 74 1010.5
20260509214517 16 204 0.0 1.6 0.03 0.00 0.05 75 1010.7
20260509214019 16 176 1.6 3.2 0.03 0.00 0.05 75 1010.7
20260509213517 16 133 1.6 3.2 0.00 0.00 0.03 74 1010.6
20260509213018 16 339 0.0 1.6 0.00 0.00 0.03 73 1010.6
20260509212517 16 354 0.0 3.2 0.00 0.00 0.03 73 1010.7
20260509212017 16 191 3.2 6.4 0.00 0.00 0.00 72 1010.4
20260509211517 16 160 0.0 3.2 0.00 0.00 0.00 72 1010.5
20260509211018 16 0 0.0 0.0 0.00 0.00 0.00 70 1010.6
20260509210518 16 105 1.6 3.2 0.00 0.00 0.00 71 1010.7
20260509210017 16 248 0.0 1.6 0.00 0.00 0.00 71 1010.8
20260509205517 16 340 0.0 1.6 0.00 0.00 0.00 71 1010.6
20260509205019 16 17 1.6 4.8 0.00 0.00 0.00 71 1010.4
20260509204518 16 42 3.2 4.8 0.00 0.00 0.00 70 1010.5
20260509204017 16 82 0.0 3.2 0.00 0.00 0.00 70 1010.5